EHI
0 0 0 0 0 0 0 0 0 0 0 0 0 0 0 0 0 0 0 0 0 0 0 0 0 0 0 0 0 0 0 0 0 1 2 2 1 1 2 3 2 1 2 4
0 0 0 0 0 0 0 0 0 0 0 0 0 0 0 0 0 0 0 0 0 0 0 0 0 0 0 0 0 0 0 0 0 1 1 1 2 3 4 5 5 4 5 6
0 0 0 0 0 0 0 0 0 0 0 0 0 0 0 0 0 0 0 0 0 0 0 0 0 0 0 0 0 0 0 0 0 0 1 1 3 4 4 7 9 8 8 8
0 0 0 0 0 0 0 0 0 0 0 0 0 0 0 0 0 0 0 0 0 0 0 0 0 0 0 0 0 0 0 0 0 0 1 1 3 2 2 5 8 9 9 8
0 0 0 0 0 0 0 0 0 0 0 0 0 0 0 0 0 0 0 0 0 0 0 0 0 0 0 0 0 0 0 0 0 0 0 1 2 1 1 2 4 6 7 7
0 0 0 0 0 0 0 0 0 0 0 0 0 0 0 0 0 0 0 0 0 0 0 0 0 0 0 0 0 0 0 0 0 0 0 0 1 1 0 1 1 3 4 5
0 0 0 0 0 0 0 0 0 0 0 0 0 0 0 0 0 0 0 0 0 0 0 0 0 0 0 0 0 0 0 0 0 0 0 0 0 0 0 0 0 1 3 4
0 0 0 0 0 0 0 0 0 0 0 0 0 0 0 0 0 0 0 0 0 0 0 0 0 0 0 0 0 0 0 0 0 0 0 0 0 0 0 0 0 1 3 3
0 0 0 0 0 0 0 0 0 0 0 0 0 0 0 0 0 0 0 0 0 0 0 0 0 0 0 0 0 0 0 0 0 0 0 0 0 0 0 0 1 2 2 2
0 0 0 0 0 0 0 0 0 0 0 0 0 0 0 0 0 0 0 0 0 0 0 0 0 0 0 0 0 0 0 0 0 0 0 0 0 0 0 0 1 2 1 1
0 0 0 0 0 0 0 0 0 0 0 0 0 0 0 0 0 0 0 0 0 0 0 0 0 0 0 0 0 0 0 0 0 0 0 0 0 0 0 0 1 1 0 0
0 0 0 0 0 0 0 0 0 0 0 0 0 0 0 0 0 0 0 0 0 0 0 0 0 0 0 0 0 0 0 0 0 0 0 0 0 0 0 0 0 0 0 0
0 0 0 0 0 0 0 0 0 0 0 0 0 0 0 0 0 0 0 0 0 0 0 0 0 0 0 0 0 0 0 0 0 0 0 0 0 0 0 0 0 0 0 0
0 0 0 0 0 0 0 0 0 0 0 0 0 0 0 0 0 0 0 0 0 0 0 0 0 0 0 0 0 0 0 0 0 0 0 0 0 0 0 0 0 0 0 0
0 0 0 0 0 0 0 0 0 0 0 0 0 0 0 0 0 0 0 0 0 0 0 0 0 0 0 0 0 0 0 0 0 0 0 0 0 0 0 0 0 0 0 0
0 0 0 0 0 0 0 0 0 0 0 0 0 0 0 0 0 0 0 0 0 0 0 0 0 0 0 0 0 0 0 0 0 0 0 0 0 0 0 0 0 0 0 0
0 0 0 0 0 0 0 0 0 0 0 0 0 0 0 0 0 0 0 0 0 0 0 0 0 0 0 0 0 0 0 0 0 0 0 0 0 0 0 0 0 0 0 0
0 0 0 0 0 0 0 0 0 0 0 0 0 0 0 0 0 0 0 0 0 0 0 0 0 0 0 0 0 0 0 0 0 0 0 0 0 0 0 0 0 0 0 0
0 0 0 0 0 0 0 0 0 0 0 0 0 0 0 0 0 0 0 0 0 0 0 0 0 0 0 0 0 0 0 0 0 0 0 0 0 0 0 0 0 0 0 0
0 0 0 0 0 0 0 0 0 0 0 0 0 0 0 0 0 0 0 0 0 0 0 0 0 0 0 0 0 0 0 0 0 0 0 0 0 0 0 0 0 0 0 0
0 0 0 0 0 0 0 0 0 0 0 0 0 0 0 0 0 0 0 0 0 0 0 0 0 0 0 0 0 0 0 0 0 0 0 0 0 0 0 0 0 0 0 0
0 0 0 0 0 0 0 0 0 0 0 0 0 0 0 0 0 0 0 0 0 0 0 0 0 0 0 0 0 0 0 0 0 0 0 0 0 0 0 0 0 0 0 0
0 0 0 0 0 0 0 0 0 0 0 0 0 0 0 0 0 0 0 0 0 0 0 0 0 0 0 0 0 0 0 0 0 0 0 0 0 0 0 0 0 0 0 0
0 0 0 0 0 0 0 0 0 0 0 0 0 0 0 0 0 0 0 0 0 0 0 0 0 0 0 0 0 0 0 0 0 0 0 0 0 0 0 0 0 0 0 0
0 0 0 0 0 0 0 0 0 0 0 0 0 0 0 0 0 0 0 0 0 0 0 0 0 0 0 0 0 0 0 0 0 0 0 0 0 0 0 0 0 0 0 0
0 0 0 0 0 0 0 0 0 0 0 0 0 0 0 0 0 0 0 0 0 0 0 0 0 0 0 0 0 0 0 0 0 0 0 0 0 0 0 0 0 0 0 0
Wind_Speed
2 3 4 3 4 3 4 4 3 1 1 2 4 5 5 4 4 4 3 3 3 3 3 3 3 3 4 4 5 5 6 6 5 5 5 6 6 6 6 6 8 9 9 9
3 2 1 2 3 3 4 4 2 0 1 2 2 4 4 3 3 3 3 2 2 2 2 3 4 4 4 5 5 5 6 6 7 6 6 5 5 5 5 5 7 9 9 9
1 1 1 3 4 4 1 2 2 1 1 0 3 3 2 0 1 2 1 1 1 1 2 3 3 3 3 3 4 4 5 6 7 7 5 4 4 3 5 6 6 8 9 9
1 1 2 3 1 2 1 1 2 2 1 1 2 2 1 1 1 1 1 1 1 0 1 2 2 2 2 2 3 4 5 5 6 7 7 8 7 6 7 6 6 7 8 8
2 1 2 1 1 1 1 1 1 1 0 1 1 2 1 2 2 3 4 4 3 2 1 2 2 1 1 1 2 2 3 5 6 6 8 9 8 6 4 5 7 6 6 7
1 0 1 1 1 1 3 3 2 1 2 1 1 2 1 2 2 3 5 6 5 4 3 2 2 1 0 1 1 1 2 4 5 6 7 9 10 9 8 7 7 5 5 5
2 2 1 0 2 2 1 2 1 2 1 1 1 1 1 4 4 4 5 6 6 5 4 4 3 2 2 2 2 1 2 3 4 6 7 8 9 10 10 9 8 8 6 6
3 3 1 1 1 1 1 2 2 0 1 1 0 1 3 4 4 5 6 6 7 7 7 6 6 4 3 3 2 2 3 4 4 5 5 6 8 6 6 8 8 8 7 7
3 3 2 2 2 1 2 1 2 1 1 1 1 0 2 4 5 7 8 8 8 8 7 7 6 6 5 4 3 2 2 3 4 4 5 5 6 6 6 6 7 6 6 5
2 3 1 1 1 3 2 2 1 1 1 1 1 1 1 2 4 6 7 8 8 7 7 7 6 6 6 5 4 4 2 2 3 4 4 3 4 4 4 5 6 6 6 7
1 3 2 2 1 1 2 2 1 1 2 2 1 1 3 2 2 4 5 6 7 8 7 7 6 6 6 6 5 4 4 3 3 3 3 3 3 3 3 4 5 6 6 7
2 2 2 1 1 3 2 1 2 2 1 1 2 0 4 2 2 3 4 6 7 7 7 7 7 7 6 6 6 5 5 4 4 3 3 2 2 3 3 4 5 5 6 6
4 4 3 4 3 3 2 2 2 1 1 3 3 2 4 2 3 3 4 6 6 7 7 7 7 7 7 7 7 6 6 5 4 4 3 3 2 3 3 4 4 4 5 6
3 2 3 2 1 3 4 4 5 4 3 4 6 5 2 3 4 4 5 6 7 7 7 7 7 7 7 7 7 7 6 5 5 4 4 4 3 3 3 3 3 4 5 5
2 2 1 1 1 2 4 5 7 8 7 6 6 6 6 4 4 3 3 5 6 7 7 8 8 8 8 8 8 8 7 6 5 4 4 4 4 2 2 3 3 4 4 5
2 2 2 1 0 2 5 7 8 9 9 10 9 8 3 3 3 3 3 5 6 7 7 8 8 9 9 9 9 9 8 7 6 5 4 4 3 2 3 3 4 4 4 5
4 4 3 2 1 3 7 9 11 8 7 7 8 5 1 2 3 4 4 5 5 6 7 9 9 8 9 9 9 9 8 8 6 5 5 4 3 3 2 3 4 4 5 5
5 4 2 1 2 6 0 2 5 8 8 8 7 4 3 4 4 4 4 4 5 7 8 8 8 9 9 8 8 8 8 7 6 6 5 4 3 3 2 3 4 4 4 5
3 5 3 2 4 6 3 4 5 6 5 6 7 5 3 3 3 3 1 3 6 7 8 8 8 8 8 8 8 8 7 7 6 6 5 4 4 3 3 3 4 4 4 4
2 3 3 4 4 6 2 5 4 3 5 4 5 4 2 2 4 2 2 5 7 7 7 7 7 7 7 7 7 7 7 7 7 7 6 5 4 4 3 3 3 3 4 4
6 5 6 6 6 7 3 6 7 5 1 4 4 4 4 4 3 3 4 5 6 7 7 7 7 6 6 7 6 7 7 7 7 6 5 4 4 3 3 2 3 3 3 4
9 8 8 7 8 7 8 9 8 1 3 3 3 3 4 4 3 4 4 5 6 6 6 7 6 6 6 6 6 7 7 7 6 5 4 4 3 2 2 3 3 4 4 4
9 7 5 8 6 2 8 6 2 3 3 3 3 3 4 4 4 4 5 5 5 6 6 6 6 7 6 6 6 7 7 6 6 5 4 3 2 2 2 3 4 4 4 4
6 4 5 6 7 6 6 6 4 4 3 3 3 3 4 4 4 5 4 5 5 5 6 5 6 6 7 7 6 6 6 6 5 5 4 3 2 2 2 2 3 3 4 4
6 9 7 7 5 4 8 9 8 6 4 3 3 3 4 4 4 4 4 4 4 5 5 5 5 6 7 7 6 6 6 5 5 4 4 3 2 2 1 2 2 4 4 4
9 10 10 8 8 7 6 8 9 8 7 6 5 4 3 4 4 4 4 4 4 4 4 5 5 6 6 6 6 6 5 5 5 4 4 3 2 2 1 1 1 2 3 4
Wind_Direction
188 204 200 207 225 222 186 200 200 244 325 222 218 233 247 247 233 233 235 235 230 234 233 206 189 185 185 184 184 190 191 195 199 197 200 200 200 200 201 204 209 207 204 203
174 204 249 201 180 176 174 180 171 109 11 273 231 263 268 262 249 257 252 238 226 226 202 199 189 177 188 191 191 200 198 197 202 208 207 211 205 206 207 207 211 209 206 203
165 22 155 164 158 149 152 193 161 147 328 329 254 247 222 139 207 223 231 234 230 216 205 180 172 172 183 194 192 210 209 210 214 214 206 204 202 205 207 212 213 212 209 205
56 65 160 161 163 180 150 196 163 178 211 64 287 238 76 39 104 119 72 55 16 142 175 151 125 122 158 209 197 208 213 216 217 211 212 210 211 213 215 213 211 208 207 208
110 124 147 132 347 245 103 110 143 194 184 203 280 238 97 61 81 39 31 32 35 49 91 107 106 113 129 207 210 215 225 221 219 214 217 217 222 222 217 215 216 211 203 207
99 46 346 33 38 108 141 134 129 184 208 200 356 256 85 53 19 10 22 24 32 37 49 69 78 82 25 3 291 248 242 239 229 222 228 223 221 220 215 217 220 218 210 208
119 106 57 338 135 117 185 201 181 171 174 103 44 266 33 33 26 19 20 26 32 35 37 35 40 31 3 352 345 274 239 242 235 227 227 231 229 223 219 216 216 214 212 209
162 143 63 9 331 157 178 288 306 272 135 104 146 255 62 44 44 49 51 46 37 33 30 26 22 18 5 350 332 296 255 243 237 233 234 235 236 231 227 223 220 217 214 207
176 128 64 26 7 274 163 107 6 45 67 246 188 164 100 69 52 42 40 37 31 25 22 19 15 14 7 349 334 314 280 264 256 246 240 235 235 230 226 225 225 221 212 202
151 135 79 10 153 54 16 108 183 188 221 231 225 224 161 79 39 28 26 24 18 15 17 16 11 6 2 354 344 341 331 298 271 261 258 254 247 237 221 218 217 215 205 196
152 143 125 150 178 151 133 148 145 130 317 281 262 90 60 89 44 22 16 10 6 8 8 8 5 3 360 356 356 357 350 337 318 294 279 263 250 239 226 220 217 210 200 191
148 144 134 119 29 321 266 208 198 215 185 263 284 59 87 67 37 21 8 1 1 2 2 3 5 3 2 358 358 355 349 342 331 318 297 279 255 231 227 222 213 202 194 186
159 164 148 159 174 184 208 197 206 160 146 202 227 189 110 46 16 9 2 359 360 1 1 1 2 3 1 355 353 349 345 340 332 324 310 292 264 234 222 221 210 195 184 176
155 177 239 238 90 166 201 204 201 190 203 216 234 246 242 318 337 348 354 355 357 360 359 359 357 356 353 350 349 346 343 339 330 320 308 292 277 255 235 215 201 188 177 168
190 184 193 319 331 228 234 223 212 215 224 232 244 255 272 297 306 316 335 347 349 351 357 356 351 348 346 346 346 344 340 336 327 315 304 295 294 276 237 205 189 178 171 164
165 161 164 226 291 270 260 242 229 230 235 240 256 270 286 287 291 305 319 332 335 342 346 346 345 342 341 341 341 338 337 334 321 307 298 293 285 269 230 200 180 171 170 164
158 161 186 216 332 280 253 230 215 214 218 224 240 255 279 275 285 302 310 318 327 334 336 337 337 337 333 332 332 331 329 326 318 310 303 293 275 256 230 199 184 177 173 167
162 161 181 207 221 239 172 79 213 221 231 227 242 257 269 282 291 293 297 312 325 329 329 328 330 329 327 325 326 325 323 322 320 314 309 301 285 263 229 202 193 188 178 175
195 177 177 207 247 267 235 194 188 205 236 218 227 244 274 311 285 264 311 335 324 321 320 320 320 320 319 321 325 323 322 322 320 315 311 302 286 264 235 215 202 195 185 179
127 181 192 195 237 248 163 142 160 190 238 182 206 225 230 248 264 291 337 324 322 320 319 320 320 317 316 321 324 320 319 321 321 318 312 303 287 265 247 228 209 198 189 184
170 184 205 212 242 264 158 143 161 207 181 141 192 205 204 232 279 318 309 311 315 316 319 320 318 318 319 322 321 315 316 318 318 313 306 298 285 266 248 226 203 191 185 179
185 183 195 196 220 241 148 158 199 213 95 155 186 208 224 250 282 293 298 304 309 315 322 325 323 323 325 326 321 314 316 320 317 313 309 303 292 271 231 204 189 185 182 179
210 205 198 207 217 68 167 190 176 137 170 180 195 219 228 246 267 285 293 297 305 315 322 327 325 322 327 332 325 317 320 320 316 315 315 312 301 276 229 204 186 182 186 187
207 201 215 238 240 219 208 205 192 189 197 193 204 214 224 247 263 276 287 295 305 315 320 323 323 324 329 332 330 324 322 321 318 316 319 320 310 288 241 213 197 195 194 194
187 177 205 237 239 218 222 212 205 198 197 198 209 224 231 245 260 272 281 291 302 310 314 320 323 323 324 327 328 330 330 324 320 321 323 319 311 293 268 240 223 216 217 216
188 187 192 214 197 193 196 187 190 193 201 204 208 222 236 243 258 267 276 288 297 305 313 316 319 320 323 325 326 331 333 326 321 322 324 322 320 316 298 266 261 248 239 233